Pratt, KS

3:12 AM CDT on October 19, 2017 (GMT -0500)
Pratt Industrial

Weather History for KPTT - November, 2012

Change the Weather History Date:

Saturday, November 24, 2012

  Actual Average (KP28) Record (KP28)
Temperature  
Mean Temperature 45 °F -  
Max Temperature 64 °F 53 °F 82 °F (1990)
Min Temperature 26 °F 30 °F 5 °F (1938)
Degree Days  
Heating Degree Days 20    
Moisture  
Dew Point 20 °F    
Average Humidity 44    
Maximum Humidity 74    
Minimum Humidity 18    
Precipitation  
Precipitation 0.00 in - - ()
Sea Level Pressure  
Sea Level Pressure 30.09 in    
Wind  
Wind Speed 12 mph (SSW)    
Max Wind Speed 24 mph    
Max Gust Speed 30 mph    
Visibility 10 miles    
Events      
Averages and records for this station are not official NWS values.
T = Trace of Precipitation, MM = Missing Value Source: NWS Daily Summary

Daily Weather History Graph

Daily Weather History Graph

Search for Another Location

Airport or City:

Trip Planner

Search our weather history database for the weather conditions in past years. The results will help you decide how hot, cold, wet, or windy it might be!

Date:

Astronomy

Nov. 24, 2012 Rise Set
Actual Time 7:25 AM CST 5:18 PM CST
Civil Twilight 6:56 AM CST 5:47 PM CST
Nautical Twilight 6:24 AM CST 6:19 PM CST
Astronomical Twilight 5:52 AM CST 6:50 PM CST
Moon 3:01 PM CST (11/24) 3:46 AM CST (11/24)
Length of Visible Light 10h 50m
Length of Day
9h 53m
Waxing Gibbous, 87% of the Moon is Illuminated
Nov 24
Waxing Gibbous
Nov 28
Full
Dec 6
Last Quarter
Dec 13
New
Dec 19
First Quarter

Hourly Weather History & Observations

Time (CST) Temp. Windchill Dew Point Humidity Pressure Visibility Wind Dir Wind Speed Gust Speed Precip Events Conditions
12:15 AM 30.2 °F 26.7 °F 19.4 °F 64% 30.39 in 10.0 mi South 3.5 mph - N/A   Clear
12:35 AM 26.6 °F 18.2 °F 19.4 °F 74% 30.38 in 10.0 mi South 8.1 mph - N/A   Clear
12:55 AM 26.6 °F 19.1 °F 19.4 °F 74% 30.36 in 10.0 mi South 6.9 mph - N/A   Clear
1:15 AM 28.4 °F 21.2 °F 19.4 °F 69% 30.36 in 10.0 mi South 6.9 mph - N/A   Clear
1:35 AM 28.4 °F 21.2 °F 19.4 °F 69% 30.35 in 10.0 mi South 6.9 mph - N/A   Clear
1:55 AM 30.2 °F 21.9 °F 19.4 °F 64% 30.35 in 10.0 mi South 9.2 mph - N/A   Clear
2:15 AM 28.4 °F 20.4 °F 19.4 °F 69% 30.34 in 10.0 mi South 8.1 mph - N/A   Clear
2:35 AM 28.4 °F 20.4 °F 19.4 °F 69% 30.34 in 10.0 mi SSW 8.1 mph - N/A   Clear
2:55 AM 30.2 °F 21.3 °F 19.4 °F 64% 30.32 in 10.0 mi South 10.4 mph - N/A   Clear
3:15 AM 30.2 °F 21.9 °F 19.4 °F 64% 30.33 in 10.0 mi South 9.2 mph - N/A   Clear
3:35 AM 30.2 °F 21.3 °F 19.4 °F 64% 30.32 in 10.0 mi South 10.4 mph - N/A   Clear
3:55 AM 30.2 °F 21.3 °F 19.4 °F 64% 30.31 in 10.0 mi South 10.4 mph - N/A   Clear
4:15 AM 30.2 °F 21.3 °F 19.4 °F 64% 30.29 in 10.0 mi South 10.4 mph - N/A   Clear
4:35 AM 30.2 °F 21.9 °F 19.4 °F 64% 30.28 in 10.0 mi South 9.2 mph - N/A   Clear
4:55 AM 30.2 °F 21.9 °F 19.4 °F 64% 30.28 in 10.0 mi South 9.2 mph - N/A   Clear
5:15 AM 30.2 °F 20.2 °F 19.4 °F 64% 30.28 in 10.0 mi South 12.7 mph - N/A   Clear
5:35 AM 30.2 °F 19.3 °F 19.4 °F 64% 30.28 in 10.0 mi South 15.0 mph - N/A   Clear
5:55 AM 32.0 °F 21.2 °F 19.4 °F 60% 30.26 in 10.0 mi South 16.1 mph - N/A   Clear
6:15 AM 32.0 °F 21.6 °F 19.4 °F 60% 30.26 in 10.0 mi South 15.0 mph - N/A   Clear
6:35 AM 32.0 °F 20.8 °F 19.4 °F 60% 30.24 in 10.0 mi South 17.3 mph - N/A   Clear
6:55 AM 32.0 °F 21.2 °F 19.4 °F 60% 30.23 in 10.0 mi South 16.1 mph - N/A   Clear
7:15 AM 32.0 °F 21.6 °F 19.4 °F 60% 30.22 in 10.0 mi South 15.0 mph - N/A   Clear
7:35 AM 32.0 °F 21.2 °F 19.4 °F 60% 30.21 in 10.0 mi South 16.1 mph - N/A   Clear
7:55 AM 32.0 °F 20.5 °F 19.4 °F 60% 30.21 in 10.0 mi South 18.4 mph - N/A   Clear
8:15 AM 32.0 °F 20.8 °F 19.4 °F 60% 30.21 in 10.0 mi South 17.3 mph - N/A   Clear
8:35 AM 33.8 °F 23.2 °F 19.4 °F 56% 30.21 in 10.0 mi South 17.3 mph - N/A   Clear
8:55 AM 33.8 °F 23.5 °F 19.4 °F 56% 30.20 in 10.0 mi South 16.1 mph 21.9 mph N/A   Clear
9:15 AM 35.6 °F 25.5 °F 21.2 °F 56% 30.19 in 10.0 mi South 17.3 mph - N/A   Clear
9:35 AM 37.4 °F 27.8 °F 21.2 °F 52% 30.19 in 10.0 mi South 17.3 mph - N/A   Clear
9:55 AM 41.0 °F 31.9 °F 21.2 °F 45% 30.17 in 10.0 mi South 19.6 mph - N/A   Clear
10:15 AM 42.8 °F 34.5 °F 21.2 °F 42% 30.16 in 10.0 mi SSW 18.4 mph - N/A   Clear
10:35 AM 44.6 °F 36.4 °F 21.2 °F 39% 30.15 in 10.0 mi SSW 20.7 mph 26.5 mph N/A   Clear
10:55 AM 46.4 °F 38.7 °F 21.2 °F 37% 30.14 in 10.0 mi SSW 20.7 mph 27.6 mph N/A   Clear
11:15 AM 50.0 °F - 21.2 °F 32% 30.13 in 10.0 mi SSW 20.7 mph - N/A   Clear
11:35 AM 51.8 °F - 21.2 °F 30% 30.10 in 10.0 mi SSW 23.0 mph - N/A   Clear
11:55 AM 53.6 °F - 21.2 °F 28% 30.08 in 10.0 mi SSW 19.6 mph 27.6 mph N/A   Clear
12:15 PM 57.2 °F - 19.4 °F 23% 30.05 in 10.0 mi SSW 23.0 mph - N/A   Clear
12:35 PM 59.0 °F - 19.4 °F 22% 30.04 in 10.0 mi SSW 21.9 mph 29.9 mph N/A   Clear
12:55 PM 59.0 °F - 19.4 °F 22% 30.02 in 10.0 mi SSW 24.2 mph 28.8 mph N/A   Clear
1:15 PM 60.8 °F - 19.4 °F 20% 30.01 in 10.0 mi SW 21.9 mph 29.9 mph N/A   Clear
1:35 PM 60.8 °F - 19.4 °F 20% 30.01 in 10.0 mi SSW 21.9 mph 28.8 mph N/A   Clear
1:55 PM 62.6 °F - 19.4 °F 19% 30.00 in 10.0 mi SSW 18.4 mph 26.5 mph N/A   Clear
2:15 PM 62.6 °F - 19.4 °F 19% 29.98 in 10.0 mi SSW 19.6 mph 24.2 mph N/A   Clear
2:35 PM 64.4 °F - 19.4 °F 18% 29.97 in 10.0 mi SW 23.0 mph 28.8 mph N/A   Clear
2:55 PM 64.4 °F - 19.4 °F 18% 29.96 in 10.0 mi SSW 19.6 mph 26.5 mph N/A   Clear
3:15 PM 64.4 °F - 19.4 °F 18% 29.95 in 10.0 mi SSW 18.4 mph - N/A   Clear
3:35 PM 64.4 °F - 19.4 °F 18% 29.95 in 10.0 mi SSW 17.3 mph 23.0 mph N/A   Clear
3:55 PM 64.4 °F - 21.2 °F 19% 29.94 in 10.0 mi SSW 15.0 mph - N/A   Clear
4:15 PM 62.6 °F - 21.2 °F 20% 29.94 in 10.0 mi SSW 13.8 mph - N/A   Clear
4:35 PM 60.8 °F - 21.2 °F 22% 29.93 in 10.0 mi SSW 12.7 mph - N/A   Clear
4:55 PM 57.2 °F - 21.2 °F 25% 29.93 in 10.0 mi SSW 11.5 mph - N/A   Clear
5:15 PM 53.6 °F - 21.2 °F 28% 29.93 in 10.0 mi SSW 9.2 mph - N/A   Clear
5:35 PM 51.8 °F - 21.2 °F 30% 29.92 in 10.0 mi South 12.7 mph - N/A   Clear
5:55 PM 51.8 °F - 21.2 °F 30% 29.91 in 10.0 mi South 12.7 mph - N/A   Clear
6:15 PM 51.8 °F - 21.2 °F 30% 29.91 in 10.0 mi SSW 15.0 mph - N/A   Clear
6:35 PM 51.8 °F - 21.2 °F 30% 29.90 in 10.0 mi SSW 13.8 mph - N/A   Clear
6:55 PM 50.0 °F - 21.2 °F 32% 29.90 in 10.0 mi SSW 16.1 mph - N/A   Clear
7:15 PM 50.0 °F - 21.2 °F 32% 29.90 in 10.0 mi SSW 17.3 mph - N/A   Clear
7:35 PM 50.0 °F - 21.2 °F 32% 29.90 in 10.0 mi SSW 17.3 mph - N/A   Clear
7:55 PM 50.0 °F - 21.2 °F 32% 29.90 in 10.0 mi SSW 16.1 mph - N/A   Clear
8:15 PM 50.0 °F - 21.2 °F 32% 29.89 in 10.0 mi SSW 16.1 mph - N/A   Clear
8:35 PM 48.2 °F - 21.2 °F 34% 29.90 in 10.0 mi SSW 12.7 mph - N/A   Clear
8:55 PM 46.4 °F 40.4 °F 21.2 °F 37% 29.89 in 10.0 mi SSW 13.8 mph - N/A   Clear
9:15 PM 44.6 °F 38.8 °F 21.2 °F 39% 29.89 in 10.0 mi SSW 11.5 mph - N/A   Clear
9:35 PM 44.6 °F 38.8 °F 21.2 °F 39% 29.90 in 10.0 mi SSW 11.5 mph - N/A   Clear
9:55 PM 44.6 °F 38.8 °F 21.2 °F 39% 29.90 in 10.0 mi SSW 11.5 mph - N/A   Clear
10:15 PM 42.8 °F 36.6 °F 21.2 °F 42% 29.90 in 10.0 mi SSW 11.5 mph - N/A   Clear
10:35 PM 42.8 °F 36.6 °F 21.2 °F 42% 29.90 in 10.0 mi SSW 11.5 mph - N/A   Clear
10:55 PM 41.0 °F 35.8 °F 21.2 °F 45% 29.90 in 10.0 mi SW 8.1 mph - N/A   Clear
11:15 PM 37.4 °F 30.3 °F 23.0 °F 56% 29.90 in 10.0 mi SW 10.4 mph - N/A   Clear
11:35 PM 39.2 °F 32.5 °F 23.0 °F 52% 29.89 in 10.0 mi SSW 10.4 mph - N/A   Clear
11:55 PM 37.4 °F 30.8 °F 23.0 °F 56% 29.89 in 10.0 mi SW 9.2 mph - N/A   Clear